Wales, AK

2:16 AM AKST on February 22, 2017 (GMT -0900)
Tin City LRRS

Weather History for PATC - February, 2013

Change the Weather History Date:

Saturday, February 9, 2013

  Actual Average Record
Temperature  
Mean Temperature -15 °F -  
Max Temperature -7 °F 7 °F 34 °F (2004)
Min Temperature -22 °F -2 °F -25 °F (2002)
Degree Days  
Heating Degree Days 80    
Moisture  
Dew Point -19 °F    
Average Humidity 81    
Maximum Humidity 85    
Minimum Humidity 76    
Precipitation  
Precipitation 0.00 in - - ()
Sea Level Pressure  
Sea Level Pressure 29.44 in    
Wind  
Wind Speed 44 mph (NNE)    
Max Wind Speed 54 mph    
Max Gust Speed 59 mph    
Averages and records for this station are not official NWS values.
T = Trace of Precipitation, MM = Missing Value Source: NWS Daily Summary

Daily Weather History Graph

Daily Weather History Graph

Search for Another Location

Airport or City:

Trip Planner

Search our weather history database for the weather conditions in past years. The results will help you decide how hot, cold, wet, or windy it might be!

Date:

Astronomy

Feb. 09, 2013 Rise Set
Actual Time 10:33 AM AKST 6:19 PM AKST
Civil Twilight 9:37 AM AKST 7:15 PM AKST
Nautical Twilight 8:36 AM AKST 8:16 PM AKST
Astronomical Twilight 7:38 AM AKST 9:14 PM AKST
Moon 9:43 AM AKST (2/9) 6:36 PM AKST (2/9)
Length of Visible Light 9h 38m
Length of Day
7h 45m
Waning Crescent, 0% of the Moon is Illuminated
Feb 9
Waning Crescent
Feb 9
New
Feb 17
First Quarter
Feb 25
Full
Mar 4
Last Quarter

Hourly Weather History & Observations

Time (AKST) Temp. Windchill Dew Point Humidity Pressure Visibility Wind Dir Wind Speed Gust Speed Precip Events Conditions
12:25 AM -22.0 °F -59.9 °F -27.4 °F 76% 29.85 in 0.2 mi NNE 41.4 mph 48.3 mph N/A Snow Snow
12:55 AM -21.6 °F -59.7 °F -26.9 °F 77% 29.83 in 0.2 mi NNE 42.6 mph - N/A Snow Heavy Snow
1:55 AM -21.3 °F -58.8 °F -26.1 °F 78% 29.81 in 0.2 mi NNE 41.4 mph 46.0 mph N/A Snow Heavy Snow
3:55 AM -20.4 °F -57.9 °F -25.6 °F 77% 29.77 in 0.2 mi NNE 42.6 mph - N/A Snow Light Snow
4:55 AM -20.0 °F -57.1 °F -24.9 °F 78% 29.74 in 0.2 mi NNE 41.4 mph - N/A Snow Light Snow
5:55 AM -18.4 °F -55.8 °F -23.8 °F 76% 29.64 in 0.2 mi NNE 44.9 mph 50.6 mph N/A Snow Heavy Snow
6:55 AM -18.4 °F -55.8 °F -23.3 °F 78% 29.65 in 0.2 mi NNE 44.9 mph 50.6 mph N/A Snow Heavy Snow
7:55 AM -17.3 °F -53.3 °F -22.0 °F 79% 29.63 in 0.2 mi NNE 41.4 mph 46.0 mph N/A Snow Heavy Snow
8:55 AM -16.6 °F -53.0 °F -20.9 °F 81% 29.59 in 0.2 mi NNE 43.7 mph 50.6 mph N/A Snow Heavy Snow
9:55 AM -16.2 °F -53.1 °F -20.9 °F 79% 29.52 in 0.2 mi NNE 46.0 mph 52.9 mph N/A Snow Heavy Snow
10:55 AM -15.7 °F -51.1 °F -20.2 °F 80% 29.52 in 0.2 mi NNE 41.4 mph - N/A Snow Heavy Snow
11:55 AM -15.2 °F -51.3 °F -19.5 °F 81% 29.46 in 0.2 mi NNE 44.9 mph 52.9 mph N/A Snow Heavy Snow
12:55 PM -14.1 °F -49.4 °F -18.4 °F 81% 29.45 in 0.2 mi NNE 43.7 mph - N/A Snow Heavy Snow
1:55 PM -13.2 °F -49.1 °F -17.3 °F 82% 29.38 in 0.2 mi NNE 47.2 mph - N/A Snow Heavy Snow
2:55 PM -12.1 °F -48.4 °F -16.2 °F 82% 29.33 in 0.2 mi NNE 50.6 mph 55.2 mph N/A Snow Heavy Snow
3:55 PM -11.0 °F -46.9 °F -15.0 °F 83% 29.27 in 0.2 mi NNE 50.6 mph 56.4 mph N/A Snow Heavy Snow
4:55 PM -10.5 °F -45.3 °F -14.6 °F 82% 29.24 in 0.2 mi NNE 47.2 mph 52.9 mph N/A Snow Heavy Snow
5:55 PM -10.3 °F -46.2 °F -14.3 °F 83% 29.18 in 0.2 mi NNE 51.8 mph 57.5 mph N/A Snow Heavy Snow
6:55 PM -10.3 °F -45.6 °F -14.1 °F 83% 29.17 in 0.2 mi NNE 49.5 mph 55.2 mph N/A Snow Heavy Snow
7:55 PM -9.9 °F -44.2 °F -13.7 °F 83% 29.16 in 0.2 mi NNE 46.0 mph 54.1 mph N/A Snow Heavy Snow
8:55 PM -9.8 °F -44.3 °F -13.4 °F 84% 29.12 in 0.2 mi NNE 47.2 mph 52.9 mph N/A Snow Heavy Snow
9:55 PM -9.2 °F -45.1 °F -13.0 °F 83% 29.05 in 0.2 mi NNE 54.1 mph 58.7 mph N/A Snow Heavy Snow
10:55 PM -8.9 °F -43.6 °F -12.5 °F 84% 29.06 in 0.2 mi NNE 49.5 mph 55.2 mph N/A Snow Heavy Snow
11:55 PM -8.1 °F -42.0 °F -11.6 °F 85% 29.04 in 0.2 mi NNE 47.2 mph - N/A Snow Heavy Snow